Flag for Russia Weather past 2 weeks in Murmansk, Russia

Now
50 °F

Scattered clouds.


Feels Like: 49 °F
Forecast: 45 / 62 °F
Wind: 3 mph from South

Location: Murmansk Airport

Current Time: May 30, 2015 at 2:10:00 AM

Latest Report: May 30, 2015 at 1:30 AM


Visibility: N/A

Pressure: 29.71 "Hg

Humidity: 58%

Dew point: 36 °F

Location of MurmanskLocation

Historic Weather in Murmansk — Graph

°F

Murmansk temperature yesterday

Maximum temperature yesterday: 63 °F (at 7:30 PM)
Minimum temperature yesterday: 46 °F (at 2:00 AM)
Average temperature yesterday: 54 °F

Past Weeks' High & Low Weather Summary

 TemperatureHumidityPressure
High68 °F (May 20, 5:00 PM)93% (May 15, 1:00 AM)30.01 "Hg (May 15, 1:00 AM)
Low32 °F (May 18, 4:00 AM)21% (May 22, 8:00 PM)29.18 "Hg (May 24, 2:30 AM)
Average45 °F67%29.71 "Hg
* Reported May 15 1:00 AM — May 30 1:00 AM, Murmansk, Weather by CustomWeather, © 2015

Note: Actual official high and low records may vary slightly from our data, if they occured in-between our weather recording intervals... More about our weather records

Advertising

Murmansk weather history for previous 24 hours

 ConditionsComfort  
Time TempWeatherWind HumidityBarometerVisibility
1:00 AM
Sat, May 30
50 °FScattered clouds.3 mph58%29.68 "HgN/A
12:00 AM50 °FScattered clouds.3 mph62%29.68 "HgN/A
11:30 PM
Fri, May 29
52 °FScattered clouds.1 mph58%29.68 "HgN/A
11:00 PM50 °FScattered clouds.1 mph67%29.68 "HgN/A
10:30 PM54 °FScattered clouds.1 mph58%29.68 "HgN/A
10:00 PM59 °FScattered clouds.1 mph42%29.68 "HgN/A
9:30 PM61 °FScattered clouds.3 mph36%29.68 "HgN/A
9:00 PM59 °FScattered clouds.3 mph36%29.68 "HgN/A
8:30 PM61 °FScattered clouds.8 mph36%29.68 "HgN/A
8:00 PM61 °FScattered clouds.6 mph36%29.68 "HgN/A
7:30 PM63 °FPartly sunny.6 mph32%29.68 "HgN/A
7:00 PM61 °FPartly sunny.8 mph39%29.65 "HgN/A
6:30 PM61 °FPartly sunny.6 mph39%29.65 "HgN/A
6:00 PM61 °FPartly sunny.6 mph39%29.65 "HgN/A
5:30 PM59 °FSprinkles. Partly sunny.8 mph42%29.65 "HgN/A
5:00 PM61 °FPartly sunny.10 mph36%29.65 "HgN/A
4:30 PM61 °FPartly sunny.8 mph39%29.65 "HgN/A
4:00 PM59 °FPartly sunny.8 mph39%29.65 "HgN/A
3:30 PM61 °FPartly sunny.8 mph39%29.62 "HgN/A
3:00 PM59 °FPartly sunny.8 mph45%29.62 "HgN/A
2:30 PM59 °FSprinkles. Partly sunny.6 mph42%29.62 "HgN/A
2:00 PM59 °FSprinkles. Partly sunny.6 mph45%29.62 "HgN/A
1:30 PM57 °FPartly sunny.8 mph44%29.62 "HgN/A
1:00 PM55 °FPartly sunny.3 mph47%29.62 "HgN/A
12:30 PM55 °FPartly sunny.13 mph47%29.62 "HgN/A
12:00 PM55 °FPartly sunny.10 mph51%29.59 "HgN/A
11:30 AM54 °FPartly sunny.10 mph54%29.59 "HgN/A
11:00 AM52 °FPartly sunny.8 mph58%29.59 "HgN/A
10:30 AM52 °FPartly sunny.8 mph58%29.59 "HgN/A
10:00 AM50 °FPartly sunny.10 mph71%29.56 "HgN/A
9:30 AM50 °FPartly sunny.6 mph67%29.56 "HgN/A
9:00 AM50 °FPartly sunny.10 mph67%29.56 "HgN/A
8:30 AM50 °FPartly sunny.8 mph67%29.56 "HgN/A
8:00 AM50 °FPartly sunny.6 mph71%29.53 "HgN/A
7:30 AM48 °FPartly sunny.8 mph71%29.56 "HgN/A
7:00 AM48 °FPartly sunny.6 mph71%29.53 "HgN/A
6:00 AM46 °FPartly sunny.6 mph71%29.53 "HgN/A
5:30 AM46 °FPartly sunny.8 mph76%29.53 "HgN/A
5:00 AM46 °FPartly sunny.6 mph76%29.53 "HgN/A
4:30 AM46 °FPartly sunny.6 mph76%29.53 "HgN/A
4:00 AM46 °FScattered clouds.3 mph76%29.50 "HgN/A
3:30 AM46 °FScattered clouds.6 mph71%29.50 "HgN/A
3:00 AM46 °FSprinkles. Scattered clouds.6 mph76%29.50 "HgN/A
2:30 AM46 °FScattered clouds.6 mph76%29.50 "HgN/A
2:00 AM46 °FScattered clouds.3 mph76%29.50 "HgN/A
Weather by CustomWeather, © 2015

See weather overviewHow to use our weather pages